DW5684 Weather Reports


Display with metric or nautical units.
time (UTC)temp
F
wind
direction
speed
MPH
gust
MPH
rain 1hr
in
rain 24hr
in
rain mn
in
humidity
%
barometer
mb
20260901071819 79 192 0.0 3.0 0.00 0.00 0.00 64 1017.1
20260901071334 79 187 1.0 2.0 0.00 0.00 0.00 63 1017.1
20260901070829 79 179 0.0 2.0 0.00 0.00 0.00 63 1017.1
20260901070324 80 155 0.0 3.0 0.00 0.00 0.00 63 1017.1
20260901065823 80 221 0.0 4.0 0.00 0.00 0.00 62 1017.1
20260901065317 80 208 1.0 4.0 0.00 0.00 0.00 62 1017.1
20260901064831 80 205 1.0 4.0 0.00 0.00 0.00 62 1017.0
20260901064326 79 224 1.0 4.0 0.00 0.00 0.00 63 1017.0
20260901063821 79 195 0.0 3.0 0.00 0.00 0.00 63 1017.0
20260901063336 79 205 0.0 2.0 0.00 0.00 0.00 63 1017.1
20260901062831 79 207 0.0 0.0 0.00 0.00 0.00 63 1017.1
20260901062324 79 193 0.0 1.0 0.00 0.00 0.00 63 1017.1
20260901061839 79 219 0.0 2.0 0.00 0.00 0.00 62 1017.2
20260901061317 79 208 1.0 2.0 0.00 0.00 0.00 62 1017.2
20260901060833 79 207 0.0 3.0 0.00 0.00 0.00 62 1017.2
20260901060328 80 200 0.0 3.0 0.00 0.00 0.00 62 1017.1
20260901055823 80 209 1.0 3.0 0.00 0.00 0.00 62 1017.2
20260901055357 80 210 1.0 2.0 0.00 0.00 0.00 62 1017.1
20260901054851 80 211 0.0 3.0 0.00 0.00 0.00 62 1017.1
20260901054326 80 210 1.0 3.0 0.00 0.00 0.00 62 1017.0
20260901053820 80 222 0.0 4.0 0.00 0.00 0.00 62 1017.0
20260901053320 80 217 2.0 4.0 0.00 0.00 0.00 62 1017.0
20260901052834 80 210 0.0 4.0 0.00 0.00 0.00 62 1016.9
20260901052328 80 214 0.0 4.0 0.00 0.00 0.00 61 1016.9
20260901051823 80 193 0.0 3.0 0.00 0.00 0.00 61 1016.9
20260901051318 81 115 0.0 1.0 0.00 0.00 0.00 61 1016.9
20260901050833 81 161 0.0 0.0 0.00 0.00 0.00 61 1016.9
20260901050328 81 181 0.0 0.0 0.00 0.00 0.00 61 1016.7
20260901045824 81 181 0.0 0.0 0.00 0.00 0.00 60 1016.6
20260901045322 81 203 0.0 2.0 0.00 0.00 0.00 60 1016.6
20260901044817 81 160 0.0 2.0 0.00 0.00 0.00 60 1016.5
20260901044332 82 189 0.0 3.0 0.00 0.00 0.00 60 1016.6
20260901043825 82 122 0.0 3.0 0.00 0.00 0.00 60 1016.6
20260901043339 82 142 1.0 3.0 0.00 0.00 0.00 60 1016.6
20260901042853 82 128 0.0 2.0 0.00 0.00 0.00 60 1016.6
20260901041848 82 207 0.0 2.0 0.00 0.00 0.00 59 1016.6
20260901041342 82 198 0.0 3.0 0.00 0.00 0.00 60 1016.5
20260901040836 82 191 1.0 3.0 0.00 0.00 0.00 59 1016.6
20260901040331 82 154 0.0 2.0 0.00 0.00 0.00 60 1016.5
20260901035828 82 162 0.0 3.0 0.00 0.00 0.00 60 1016.5
20260901035322 82 57 0.0 4.0 0.00 0.00 0.00 60 1016.5
20260901034857 82 182 0.0 3.0 0.00 0.00 0.00 60 1016.5
20260901034329 81 158 0.0 2.0 0.00 0.00 0.00 61 1016.5
20260901033824 81 153 0.0 2.0 0.00 0.00 0.00 61 1016.4
20260901033319 80 252 0.0 2.0 0.00 0.00 0.00 62 1016.4
20260901032834 79 219 0.0 2.0 0.00 0.00 0.00 64 1016.4
20260901032330 78 243 0.0 2.0 0.00 0.00 0.00 66 1016.4
20260901031829 77 79 0.0 0.0 0.00 0.00 0.00 67 1016.3
20260901031323 78 79 0.0 0.0 0.00 0.00 0.00 69 1016.4
20260901030838 78 79 0.0 0.0 0.00 0.00 0.00 70 1016.3
20260901030332 78 79 0.0 0.0 0.00 0.00 0.00 71 1016.3
20260901025827 78 79 0.0 0.0 0.00 0.00 0.00 69 1016.3
20260901025321 78 79 0.0 5.0 0.00 0.00 0.00 70 1016.2
20260901024817 79 79 0.0 5.0 0.00 0.00 0.00 69 1016.2
20260901024331 78 212 0.0 0.0 0.00 0.00 0.00 70 1016.1
20260901023829 78 212 0.0 0.0 0.00 0.00 0.00 67 1016.0
20260901023323 78 212 0.0 0.0 0.00 0.00 0.00 67 1016.0
20260901022838 78 212 0.0 0.0 0.00 0.00 0.00 66 1016.0
20260901022331 78 212 0.0 0.0 0.00 0.00 0.00 65 1015.8
20260901021826 79 212 0.0 0.0 0.00 0.00 0.00 65 1015.8
20260901021319 79 212 0.0 0.0 0.00 0.00 0.00 64 1015.8
20260901020834 79 212 0.0 0.0 0.00 0.00 0.00 66 1015.7
20260901020329 79 213 0.0 0.0 0.00 0.00 0.00 63 1015.6
20260901015823 80 213 0.0 0.0 0.00 0.00 0.00 63 1015.6
20260901015322 80 212 0.0 0.0 0.00 0.00 0.00 62 1015.5
20260901014837 81 213 0.0 0.0 0.00 0.00 0.00 63 1015.5
20260901014331 81 213 0.0 0.0 0.00 0.00 0.00 62 1015.5
20260901013826 81 212 0.0 0.0 0.00 0.00 0.00 60 1015.4
20260901013321 82 212 0.0 0.0 0.00 0.00 0.00 61 1015.4
20260901012856 82 212 0.0 0.0 0.00 0.00 0.00 58 1015.3
20260901012330 82 212 0.0 0.0 0.00 0.00 0.00 58 1015.3
20260901011825 83 212 0.0 0.0 0.00 0.00 0.00 57 1015.2
20260901011324 83 212 0.0 0.0 0.00 0.00 0.00 57 1015.1
20260901010819 84 212 0.0 0.0 0.00 0.00 0.00 56 1015.1
20260901010353 85 212 0.0 0.0 0.00 0.00 0.00 54 1015.0
20260901005827 85 212 0.0 0.0 0.00 0.00 0.00 53 1015.0
20260901005322 86 212 0.0 0.0 0.00 0.00 0.00 53 1015.0
20260901004818 87 213 0.0 0.0 0.00 0.00 0.00 53 1015.0
20260901004333 88 212 0.0 0.0 0.00 0.00 0.00 50 1015.0
20260901003847 89 212 0.0 0.0 0.00 0.00 0.00 47 1014.9
20260901003320 90 212 0.0 0.0 0.00 0.00 0.00 45 1014.9
20260901002819 91 212 0.0 0.0 0.00 0.00 0.00 44 1014.9
20260901002334 92 212 0.0 0.0 0.00 0.00 0.00 42 1014.9
20260901001829 93 212 0.0 0.0 0.00 0.00 0.00 41 1014.9
20260901001324 94 212 0.0 1.0 0.00 0.00 0.00 40 1014.9
20260901000819 94 218 0.0 1.0 0.00 0.00 0.00 39 1014.8
20260901000333 94 219 0.0 0.0 0.00 0.00 0.00 38 1014.8
20260831235826 95 218 0.0 0.0 0.00 0.00 0.00 38 1014.8
20260831235325 95 207 0.0 3.0 0.00 0.00 0.00 38 1014.8
20260831234818 96 156 0.0 3.0 0.00 0.00 0.00 37 1014.9
20260831234332 96 191 0.0 0.0 0.00 0.00 0.00 37 1014.9
20260831233827 96 215 0.0 3.0 0.00 0.00 0.00 36 1014.8
20260831233321 97 225 1.0 4.0 0.00 0.00 0.00 35 1014.8
20260831232835 97 106 0.0 4.0 0.00 0.00 0.00 36 1014.8
20260831232330 97 217 0.0 3.0 0.00 0.00 0.00 37 1014.8
20260831231824 97 181 0.0 6.0 0.00 0.00 0.00 35 1014.8
20260831231339 97 229 1.0 3.0 0.00 0.00 0.00 36 1014.8
20260831230818 97 221 0.0 0.0 0.00 0.00 0.00 36 1014.8
20260831230333 98 148 0.0 2.0 0.00 0.00 0.00 35 1014.8
20260831225827 98 157 0.0 5.0 0.00 0.00 0.00 35 1014.8
20260831225342 98 155 2.0 5.0 0.00 0.00 0.00 35 1014.8
20260831224836 98 56 0.0 5.0 0.00 0.00 0.00 36 1014.8
20260831224332 98 206 2.0 5.0 0.00 0.00 0.00 35 1014.8
20260831223826 99 223 0.0 6.0 0.00 0.00 0.00 35 1014.9
20260831223342 99 148 1.0 6.0 0.00 0.00 0.00 34 1014.9
20260831222819 100 229 3.0 6.0 0.00 0.00 0.00 33 1015.0
20260831222354 100 225 1.0 4.0 0.00 0.00 0.00 33 1015.0
20260831221847 100 199 0.0 5.0 0.00 0.00 0.00 33 1015.0
20260831221322 101 203 1.0 5.0 0.00 0.00 0.00 33 1015.0
20260831220817 101 170 1.0 6.0 0.00 0.00 0.00 32 1015.0
20260831220332 101 212 1.0 8.0 0.00 0.00 0.00 32 1015.0
20260831215827 102 205 2.0 8.0 0.00 0.00 0.00 33 1015.1
20260831215322 102 194 1.0 5.0 0.00 0.00 0.00 33 1015.1
20260831214857 102 163 0.0 5.0 0.00 0.00 0.00 33 1015.1
20260831214330 102 221 2.0 6.0 0.00 0.00 0.00 32 1015.2
20260831213828 103 238 1.0 5.0 0.00 0.00 0.00 32 1015.2
20260831213323 103 170 0.0 7.0 0.00 0.00 0.00 32 1015.2
20260831212838 102 134 1.0 7.0 0.00 0.00 0.00 31 1015.2
20260831212332 102 240 1.0 5.0 0.00 0.00 0.00 31 1015.1
20260831211847 103 154 1.0 5.0 0.00 0.00 0.00 32 1015.2
20260831211321 103 95 0.0 8.0 0.00 0.00 0.00 31 1015.2
20260831210836 102 185 1.0 6.0 0.00 0.00 0.00 31 1015.3
20260831210331 102 226 0.0 6.0 0.00 0.00 0.00 31 1015.3
20260831205830 102 151 0.0 5.0 0.00 0.00 0.00 32 1015.3
20260831205325 102 316 0.0 6.0 0.00 0.00 0.00 32 1015.4
20260831204820 102 283 2.0 8.0 0.00 0.00 0.00 31 1015.4
20260831204354 102 172 5.0 8.0 0.00 0.00 0.00 32 1015.5
20260831203827 102 235 0.0 3.0 0.00 0.00 0.00 33 1015.5
20260831203322 102 91 0.0 8.0 0.00 0.00 0.00 31 1015.5
20260831202817 102 99 3.0 9.0 0.00 0.00 0.00 33 1015.7
20260831202352 102 222 3.0 9.0 0.00 0.00 0.00 31 1015.7
20260831201846 102 207 2.0 6.0 0.00 0.00 0.00 31 1015.8
20260831201324 102 200 1.0 6.0 0.00 0.00 0.00 33 1015.9
20260831200819 101 206 0.0 10.0 0.00 0.00 0.00 32 1015.9
20260831200334 101 219 2.0 10.0 0.00 0.00 0.00 31 1016.0
20260831195828 102 226 0.0 7.0 0.00 0.00 0.00 31 1016.0
20260831195322 102 219 3.0 7.0 0.00 0.00 0.00 31 1016.1
20260831194818 102 158 0.0 7.0 0.00 0.00 0.00 33 1016.1
20260831194332 102 141 1.0 9.0 0.00 0.00 0.00 32 1016.2
20260831193827 101 176 2.0 9.0 0.00 0.00 0.00 33 1016.2
20260831193346 101 151 2.0 7.0 0.00 0.00 0.00 33 1016.2
20260831192819 100 172 1.0 7.0 0.00 0.00 0.00 32 1016.2
20260831192354 100 271 0.0 6.0 0.00 0.00 0.00 34 1016.3
20260831191829 100 53 1.0 10.0 0.00 0.00 0.00 35 1016.4
20260831191324 101 67 3.0 10.0 0.00 0.00 0.00 34 1016.5
20260831190818 101 211 3.0 7.0 0.00 0.00 0.00 33 1016.5
20260831190332 101 168 0.0 4.0 0.00 0.00 0.00 33 1016.5
20260831185847 101 226 1.0 5.0 0.00 0.00 0.00 33 1016.6
20260831185321 101 192 2.0 7.0 0.00 0.00 0.00 34 1016.7
20260831184820 101 172 3.0 6.0 0.00 0.00 0.00 34 1016.7
20260831184334 101 178 0.0 7.0 0.00 0.00 0.00 33 1016.7
20260831183828 101 230 0.0 7.0 0.00 0.00 0.00 33 1016.7
20260831183343 101 177 1.0 5.0 0.00 0.00 0.00 35 1016.9
20260831182817 100 168 0.0 4.0 0.00 0.00 0.00 36 1016.8
20260831182332 100 48 1.0 8.0 0.00 0.00 0.00 35 1017.0
20260831181826 100 217 4.0 7.0 0.00 0.00 0.00 33 1017.1
20260831181340 100 248 0.0 6.0 0.00 0.00 0.00 37 1017.1
20260831180834 100 60 3.0 6.0 0.00 0.00 0.00 36 1017.3
20260831180333 100 207 1.0 7.0 0.00 0.00 0.00 35 1017.3
20260831175828 99 214 4.0 7.0 0.00 0.00 0.00 35 1017.3
20260831175324 100 212 3.0 6.0 0.00 0.00 0.00 36 1017.3
20260831174819 99 232 3.0 6.0 0.00 0.00 0.00 36 1017.3
20260831174333 99 210 0.0 6.0 0.00 0.00 0.00 38 1017.4
20260831173828 99 210 4.0 7.0 0.00 0.00 0.00 36 1017.4
20260831173323 98 224 2.0 7.0 0.00 0.00 0.00 39 1017.4
20260831172857 98 213 1.0 7.0 0.00 0.00 0.00 39 1017.5
20260831172335 98 153 4.0 6.0 0.00 0.00 0.00 39 1017.6
20260831171829 97 203 2.0 7.0 0.00 0.00 0.00 41 1017.7
20260831171323 97 160 2.0 8.0 0.00 0.00 0.00 41 1017.7
20260831170819 97 177 5.0 8.0 0.00 0.00 0.00 41 1017.8
20260831170354 97 195 2.0 8.0 0.00 0.00 0.00 41 1017.9
20260831165828 97 207 5.0 8.0 0.00 0.00 0.00 40 1018.0
20260831165323 97 281 0.0 7.0 0.00 0.00 0.00 42 1018.1
20260831164819 97 207 4.0 7.0 0.00 0.00 0.00 41 1018.2
20260831164338 97 190 3.0 4.0 0.00 0.00 0.00 43 1018.2
20260831163852 96 214 0.0 3.0 0.00 0.00 0.00 44 1018.2
20260831163345 96 309 1.0 6.0 0.00 0.00 0.00 43 1018.2
20260831162819 95 275 1.0 8.0 0.00 0.00 0.00 45 1018.2
20260831162335 95 230 0.0 5.0 0.00 0.00 0.00 45 1018.1
20260831161829 95 167 1.0 5.0 0.00 0.00 0.00 46 1018.3
20260831161324 94 217 0.0 6.0 0.00 0.00 0.00 47 1018.2
20260831160819 94 23 2.0 10.0 0.00 0.00 0.00 47 1018.3
20260831160334 94 227 1.0 7.0 0.00 0.00 0.00 48 1018.3
20260831155833 93 192 2.0 5.0 0.00 0.00 0.00 48 1018.3
20260831155348 93 221 3.0 9.0 0.00 0.00 0.00 48 1018.3
20260831154820 93 213 3.0 9.0 0.00 0.00 0.00 47 1018.3
20260831154332 93 243 1.0 9.0 0.00 0.00 0.00 49 1018.4
20260831153825 92 234 3.0 9.0 0.00 0.00 0.00 50 1018.4
20260831153320 92 195 1.0 7.0 0.00 0.00 0.00 51 1018.3
20260831152854 92 210 4.0 7.0 0.00 0.00 0.00 50 1018.3
20260831152327 91 295 2.0 8.0 0.00 0.00 0.00 50 1018.4
20260831151822 91 216 1.0 6.0 0.00 0.00 0.00 51 1018.3
20260831151317 91 221 4.0 8.0 0.00 0.00 0.00 51 1018.3
20260831150836 90 233 2.0 8.0 0.00 0.00 0.00 52 1018.4
20260831150330 90 221 3.0 9.0 0.00 0.00 0.00 51 1018.4
20260831145824 90 223 3.0 9.0 0.00 0.00 0.00 52 1018.3
20260831145320 90 210 3.0 6.0 0.00 0.00 0.00 52 1018.3
20260831144834 90 203 3.0 6.0 0.00 0.00 0.00 53 1018.2
20260831144349 89 210 3.0 6.0 0.00 0.00 0.00 55 1018.1
20260831143822 89 198 2.0 11.0 0.00 0.00 0.00 55 1018.1
20260831143316 88 209 4.0 11.0 0.00 0.00 0.00 55 1018.1
20260831142831 88 208 6.0 11.0 0.00 0.00 0.00 55 1018.1
20260831142328 88 210 4.0 9.0 0.00 0.00 0.00 56 1018.0
20260831141821 88 219 4.0 8.0 0.00 0.00 0.00 55 1018.0
20260831141335 87 173 3.0 7.0 0.00 0.00 0.00 56 1018.0
20260831140829 87 217 4.0 7.0 0.00 0.00 0.00 56 1018.0
20260831140323 87 191 3.0 8.0 0.00 0.00 0.00 57 1018.0
20260831135817 87 226 2.0 10.0 0.00 0.00 0.00 58 1018.0
20260831135331 86 212 2.0 10.0 0.00 0.00 0.00 58 1017.9
20260831134825 86 231 2.0 9.0 0.00 0.00 0.00 57 1018.0
20260831134322 86 113 2.0 8.0 0.00 0.00 0.00 58 1017.9
20260831133856 85 208 2.0 9.0 0.00 0.00 0.00 59 1018.0
20260831133329 85 79 3.0 9.0 0.00 0.00 0.00 60 1017.9
20260831132824 85 156 3.0 5.0 0.00 0.00 0.00 59 1017.8
20260831132320 84 191 2.0 5.0 0.00 0.00 0.00 60 1017.8
20260831131833 84 214 2.0 5.0 0.00 0.00 0.00 60 1017.8
20260831131328 84 153 1.0 4.0 0.00 0.00 0.00 60 1017.8
20260831130821 84 207 1.0 4.0 0.00 0.00 0.00 61 1017.8
20260831130339 83 205 1.0 4.0 0.00 0.00 0.00 62 1017.7
20260831125833 82 212 1.0 3.0 0.00 0.00 0.00 63 1017.7
20260831125347 81 186 0.0 4.0 0.00 0.00 0.00 65 1017.5
20260831124821 80 233 1.0 4.0 0.00 0.00 0.00 66 1017.5
20260831124355 78 208 0.0 3.0 0.00 0.00 0.00 69 1017.5
20260831123828 76 176 1.0 3.0 0.00 0.00 0.00 71 1017.4
20260831123324 75 164 0.0 2.0 0.00 0.00 0.00 72 1017.4
20260831122817 75 195 0.0 0.0 0.00 0.00 0.00 72 1017.3
20260831122332 75 145 0.0 0.0 0.00 0.00 0.00 73 1017.2
20260831121830 74 155 0.0 1.0 0.00 0.00 0.00 73 1017.1
20260831121345 74 178 0.0 0.0 0.00 0.00 0.00 73 1016.9
20260831120819 74 170 0.0 2.0 0.00 0.00 0.00 73 1016.9
20260831120332 74 157 0.0 3.0 0.00 0.00 0.00 72 1016.8
20260831115828 74 168 0.0 3.0 0.00 0.00 0.00 72 1016.7
20260831115322 74 169 0.0 5.0 0.00 0.00 0.00 72 1016.7
20260831114817 74 184 1.0 5.0 0.00 0.00 0.00 72 1016.6
20260831114331 74 164 0.0 2.0 0.00 0.00 0.00 72 1016.6
20260831113827 74 177 0.0 2.0 0.00 0.00 0.00 72 1016.5
20260831113322 74 191 0.0 2.0 0.00 0.00 0.00 71 1016.4
20260831112816 74 186 0.0 4.0 0.00 0.00 0.00 71 1016.3
20260831112327 74 154 1.0 4.0 0.00 0.00 0.00 71 1016.4
20260831111821 75 160 1.0 3.0 0.00 0.00 0.00 70 1016.4
20260831111336 75 179 1.0 3.0 0.00 0.00 0.00 70 1016.3
20260831110830 75 172 1.0 4.0 0.00 0.00 0.00 70 1016.3
20260831110327 75 83 1.0 4.0 0.00 0.00 0.00 69 1016.4
20260831105826 75 131 2.0 4.0 0.00 0.00 0.00 69 1016.4
20260831105322 75 121 2.0 4.0 0.00 0.00 0.00 69 1016.3
20260831104856 75 172 2.0 4.0 0.00 0.00 0.00 69 1016.3
20260831104350 75 191 2.0 6.0 0.00 0.00 0.00 69 1016.3
20260831103823 75 190 1.0 6.0 0.00 0.00 0.00 69 1016.2
20260831103318 75 146 0.0 5.0 0.00 0.00 0.00 69 1016.2
20260831102833 75 204 1.0 5.0 0.00 0.00 0.00 70 1016.1
20260831102347 74 169 1.0 2.0 0.00 0.00 0.00 70 1016.0
20260831101820 74 156 0.0 2.0 0.00 0.00 0.00 70 1016.1
20260831101318 74 108 0.0 2.0 0.00 0.00 0.00 70 1016.1
20260831100833 74 172 0.0 0.0 0.00 0.00 0.00 69 1016.1
20260831100328 74 172 0.0 1.0 0.00 0.00 0.00 69 1016.2
20260831095824 74 160 0.0 1.0 0.00 0.00 0.00 69 1016.1
20260831095339 74 169 0.0 0.0 0.00 0.00 0.00 69 1016.1
20260831094833 75 179 0.0 0.0 0.00 0.00 0.00 69 1016.1
20260831094327 75 176 0.0 0.0 0.00 0.00 0.00 69 1016.1
20260831093842 75 167 0.0 0.0 0.00 0.00 0.00 68 1016.1
20260831093355 75 218 0.0 0.0 0.00 0.00 0.00 67 1016.1
20260831092827 75 221 0.0 2.0 0.00 0.00 0.00 67 1016.1
20260831092326 76 170 0.0 2.0 0.00 0.00 0.00 67 1016.1
20260831091817 76 170 1.0 3.0 0.00 0.00 0.00 67 1015.9
20260831091332 76 169 1.0 3.0 0.00 0.00 0.00 67 1015.9
20260831090827 76 159 0.0 3.0 0.00 0.00 0.00 67 1016.0
20260831090322 76 122 1.0 3.0 0.00 0.00 0.00 66 1015.9
20260831085817 76 159 1.0 4.0 0.00 0.00 0.00 66 1015.9
20260831085332 76 143 1.0 5.0 0.00 0.00 0.00 67 1015.8
20260831084830 76 152 1.0 5.0 0.00 0.00 0.00 67 1015.8
20260831084325 76 141 0.0 2.0 0.00 0.00 0.00 67 1015.8
20260831083839 76 166 0.0 3.0 0.00 0.00 0.00 67 1015.8
20260831083333 76 183 0.0 3.0 0.00 0.00 0.00 66 1015.7
20260831082829 76 70 0.0 3.0 0.00 0.00 0.00 66 1015.7
20260831082324 77 160 0.0 5.0 0.00 0.00 0.00 65 1015.7
20260831081857 77 115 2.0 5.0 0.00 0.00 0.00 65 1015.7
20260831081331 77 142 1.0 4.0 0.00 0.00 0.00 65 1015.6
20260831080826 77 139 1.0 4.0 0.00 0.00 0.00 65 1015.5
20260831080325 77 135 1.0 5.0 0.00 0.00 0.00 65 1015.5
20260831075820 77 137 2.0 6.0 0.00 0.00 0.00 65 1015.4
20260831075336 77 178 2.0 5.0 0.00 0.00 0.00 65 1015.5
20260831074829 77 159 1.0 4.0 0.00 0.00 0.00 65 1015.5
20260831074323 77 150 1.0 5.0 0.00 0.00 0.00 65 1015.4
20260831073819 77 207 2.0 5.0 0.00 0.00 0.00 65 1015.5
20260831073334 77 169 1.0 4.0 0.00 0.00 0.00 65 1015.4
20260831072830 77 186 2.0 5.0 0.00 0.00 0.00 66 1015.5
20260831072349 77 171 3.0 5.0 0.00 0.00 0.00 66 1015.4